Change the Weather History Date:

Tuesday, March 19, 2013

  Actual Average Record
Temperature  
Mean Temperature 62 °F 54 °F  
Max Temperature 78 °F 67 °F 84 °F (2004)
Min Temperature 46 °F 42 °F 34 °F (2002)
Degree Days  
Heating Degree Days 3    
Month to date heating degree days 135  
Since 1 July heating degree days 2138  
Cooling Degree Days 0    
Month to date cooling degree days 0  
Year to date cooling degree days 0  
Growing Degree Days 12 (Base 50)    
Moisture  
Dew Point 44 °F    
Average Humidity 59    
Maximum Humidity 93    
Minimum Humidity 24    
Precipitation  
Precipitation 0.02 in 0.04 in 0.37 in (2005)
Month to date precipitation 0.12 1.31  
Year to date precipitation 2.26 5.89  
Since 1 July precipitation 6.96  
Snow  
Snow 0.00 in - - ()
Month to date snowfall 0.0  
Since 1 July snowfall 0.0  
Snow Depth 0.00 in    
Sea Level Pressure  
Sea Level Pressure 30.08 in    
Wind  
Wind Speed 4 mph (WNW)    
Max Wind Speed 13 mph    
Max Gust Speed 29 mph    
Visibility 10 miles    
Events Rain    
T = Trace of Precipitation, MM = Missing Value Source: NWS Daily Summary

Daily Weather History Graph

Daily Weather History Graph

Search for Another Location

Airport or City:

Trip Planner

Search our weather history database for the weather conditions in past years. The results will help you decide how hot, cold, wet, or windy it might be!

Date:

Astronomy

Mar. 19, 2013 Rise Set
Actual Time 7:04 AM PDT 7:11 PM PDT
Civil Twilight 6:39 AM PDT 7:37 PM PDT
Nautical Twilight 6:08 AM PDT 8:07 PM PDT
Astronomical Twilight 5:38 AM PDT 8:38 PM PDT
Moon 12:07 PM PDT (3/19) 1:54 AM PDT (3/19)
Length of Visible Light 12h 58m
Length of Day
12h 06m
Waxing Crescent, 51% of the Moon is Illuminated
Mar 19
Waxing Crescent
Mar 27
Full
Apr 2
Last Quarter
Apr 10
New
Apr 18
First Quarter

Hourly Weather History & Observations

Time (PDT) Temp. Dew Point Humidity Pressure Visibility Wind Dir Wind Speed Gust Speed Precip Events Conditions
12:53 AM 55.9 °F 46.0 °F 69% 30.06 in 10.0 mi WNW 4.6 mph - N/A   Clear
1:53 AM 53.1 °F 45.0 °F 74% 30.07 in 10.0 mi WNW 3.5 mph - N/A   Clear
2:53 AM 51.1 °F 45.0 °F 80% 30.06 in 10.0 mi Calm Calm - N/A   Clear
3:53 AM 46.9 °F 44.1 °F 90% 30.06 in 10.0 mi WSW 5.8 mph - N/A   Clear
4:53 AM 48.0 °F 44.1 °F 86% 30.06 in 10.0 mi West 3.5 mph - N/A   Clear
5:53 AM 46.0 °F 44.1 °F 93% 30.08 in 10.0 mi Calm Calm - N/A   Clear
6:53 AM 46.9 °F 43.0 °F 86% 30.09 in 10.0 mi Calm Calm - N/A   Clear
7:53 AM 48.0 °F 45.0 °F 89% 30.10 in 10.0 mi Calm Calm - N/A   Clear
8:53 AM 55.0 °F 46.9 °F 74% 30.11 in 10.0 mi Calm Calm - N/A   Partly Cloudy
9:53 AM 60.1 °F 46.9 °F 62% 30.12 in 10.0 mi North - - N/A   Clear
10:53 AM 66.9 °F 46.0 °F 47% 30.11 in 10.0 mi Calm Calm - N/A   Clear
11:53 AM 70.0 °F 37.9 °F 31% 30.10 in 10.0 mi Calm Calm - N/A   Clear
12:53 PM 73.0 °F 39.0 °F 29% 30.09 in 10.0 mi Variable 3.5 mph - N/A   Clear
1:53 PM 73.9 °F 37.0 °F 26% 30.07 in 10.0 mi SW 5.8 mph - N/A   Clear
2:53 PM 75.0 °F 39.0 °F 27% 30.05 in 10.0 mi Calm Calm - N/A   Clear
3:53 PM 77.0 °F 37.9 °F 24% 30.04 in 10.0 mi Calm Calm - N/A   Clear
4:53 PM 77.0 °F 39.0 °F 25% 30.03 in 10.0 mi NNW 4.6 mph - N/A   Clear
5:53 PM 75.0 °F 39.0 °F 27% 30.03 in 10.0 mi NNW 5.8 mph - N/A   Clear
6:53 PM 69.1 °F 46.0 °F 44% 30.05 in 10.0 mi WNW 6.9 mph - N/A   Scattered Clouds
7:53 PM 66.9 °F 45.0 °F 45% 30.07 in 10.0 mi WNW 9.2 mph - N/A   Mostly Cloudy
8:53 PM 64.0 °F 43.0 °F 46% 30.12 in 10.0 mi NW 11.5 mph 20.7 mph N/A   Overcast
9:53 PM 59.0 °F 48.0 °F 67% 30.16 in 10.0 mi North 10.4 mph 28.8 mph 0.00 in Rain Light Rain
10:53 PM 57.0 °F 50.0 °F 77% 30.17 in 10.0 mi NNW 12.7 mph - 0.01 in Rain Light Rain
11:53 PM 57.0 °F 51.1 °F 81% 30.12 in 10.0 mi North - - 0.01 in Rain Light Rain